Minneapolis Flying Cloud, MN

7:42 PM CST on December 12, 2019 (GMT -0600)
Flying Cloud

Weather History for KFCM - August, 2019

Change the Weather History Date:

Thursday, August 29, 2019

  Actual Average Record
Temperature  
Mean Temperature 64 °F -  
Max Temperature 75 °F 78 °F 95 °F (2013)
Min Temperature 55 °F 58 °F 52 °F (2004)
Degree Days  
Heating Degree Days 1    
Growing Degree Days 14 (Base 50)    
Moisture  
Dew Point 52 °F    
Average Humidity 65    
Maximum Humidity 87    
Minimum Humidity 41    
Precipitation  
Precipitation 0.00 in - - ()
Sea Level Pressure  
Sea Level Pressure 29.86 in    
Wind  
Wind Speed 9 mph (West)    
Max Wind Speed 20 mph    
Max Gust Speed 31 mph    
Visibility 10 miles    
Events      
Averages and records for this station are not official NWS values.
T = Trace of Precipitation, MM = Missing Value Source: NWS Daily Summary

Daily Weather History Graph

Daily Weather History Graph

Search for Another Location

Airport or City:

Astronomy

Aug. 29, 2019 Rise Set
Actual Time 6:32 AM CDT 7:56 PM CDT
Civil Twilight 6:01 AM CDT 8:26 PM CDT
Nautical Twilight 5:24 AM CDT 9:03 PM CDT
Astronomical Twilight 4:45 AM CDT 9:42 PM CDT
Moon 5:12 AM CDT (8/29) 7:57 PM CDT (8/29)
Length of Visible Light 14h 25m
Length of Day
13h 24m
Waning Crescent, 1% of the Moon is Illuminated
Aug 29
Waning Crescent
Aug 30
New
Sep 5
First Quarter
Sep 13
Full
Sep 21
Last Quarter

Hourly Weather History & Observations

Time (CDT) Temp. Dew Point Humidity Pressure Visibility Wind Dir Wind Speed Gust Speed Precip Events Conditions
12:53 AM 57.0 °F 53.1 °F 87% 29.87 in 10.0 mi South 3.5 mph - N/A   Clear
1:53 AM 55.9 °F 52.0 °F 87% 29.85 in 10.0 mi SSW 4.6 mph - N/A   Clear
2:53 AM 55.0 °F 51.1 °F 86% 29.83 in 10.0 mi SSW 5.8 mph - N/A   Clear
3:53 AM 55.9 °F 51.1 °F 84% 29.81 in 10.0 mi SSW 6.9 mph - N/A   Clear
4:53 AM 55.9 °F 51.1 °F 84% 29.78 in 10.0 mi SSW 6.9 mph - N/A   Clear
5:53 AM 57.0 °F 51.1 °F 81% 29.76 in 10.0 mi SSW 6.9 mph - N/A   Clear
6:53 AM 60.1 °F 53.1 °F 78% 29.73 in 10.0 mi SSW 9.2 mph - N/A   Clear
7:53 AM 62.1 °F 55.9 °F 80% 29.71 in 10.0 mi SW 12.7 mph 21.9 mph N/A   Mostly Cloudy
8:53 AM 66.0 °F 57.9 °F 75% 29.73 in 10.0 mi WSW 10.4 mph - N/A   Clear
9:53 AM 70.0 °F 57.9 °F 65% 29.76 in 10.0 mi WNW 10.4 mph 23.0 mph N/A   Clear
10:53 AM 73.0 °F 54.0 °F 51% 29.78 in 10.0 mi WNW 15.0 mph 25.3 mph N/A   Clear
11:53 AM 73.0 °F 48.9 °F 42% 29.81 in 10.0 mi WNW 18.4 mph 29.9 mph N/A   Clear
12:53 PM 73.9 °F 48.9 °F 41% 29.83 in 10.0 mi WNW 15.0 mph 29.9 mph N/A   Clear
1:53 PM 73.0 °F 50.0 °F 44% 29.85 in 10.0 mi West 18.4 mph 29.9 mph N/A   Clear
2:53 PM 73.9 °F 51.1 °F 45% 29.87 in 10.0 mi WNW 12.7 mph 28.8 mph N/A   Scattered Clouds
3:53 PM 73.0 °F 51.1 °F 46% 29.88 in 10.0 mi WNW 13.8 mph 26.5 mph N/A   Partly Cloudy
4:53 PM 72.0 °F 48.9 °F 44% 29.89 in 10.0 mi NW 19.6 mph 31.1 mph N/A   Clear
5:53 PM 72.0 °F 50.0 °F 46% 29.91 in 10.0 mi NW 16.1 mph - N/A   Clear
6:53 PM 69.1 °F 50.0 °F 51% 29.93 in 10.0 mi NW 10.4 mph 23.0 mph N/A   Clear
7:53 PM 66.9 °F 50.0 °F 54% 29.96 in 10.0 mi NW 9.2 mph - N/A   Clear
8:53 PM 63.0 °F 50.0 °F 63% 29.98 in 10.0 mi West 4.6 mph - N/A   Clear
9:53 PM 60.1 °F 51.1 °F 72% 30.00 in 10.0 mi WNW 4.6 mph - N/A   Clear
10:53 PM 59.0 °F 51.1 °F 75% 30.02 in 10.0 mi West 5.8 mph - N/A   Clear
11:53 PM 57.0 °F 50.0 °F 77% 30.04 in 10.0 mi West 3.5 mph - N/A   Clear